Location: *
(34.8620°S, 39.3380°E)
Time: 08:13:15
(UTC+00:00)

SAOCOM 1-B - Pass Details

Date: 03 June 2022
Orbit: 621 x 623 km, 97.9° (Epoch: 06 July)

Event Time Altitude Azimuth Distance (km) Brightness Sun altitude
Rises 02:50:29 0° 155° (SSE) 2,937 ? -18.5°
Reaches altitude 10° 02:52:58 10° 143° (SE) 2,022 ? -18.0°
Maximum altitude 02:56:45 28° 83° (E) 1,187 ? -17.2°
Drops below altitude 10° 03:00:30 10° 24° (NNE) 1,997 ? -16.5°
Sets 03:02:56 0° 12° (NNE) 2,894 ? -16.0°
